Regional Weather Roundup
Issued by NWS

Home | Current Version | Previous Version | Text Only | Print | Product List | Glossary On
Versions: 1 2 3 4 5 6 7 8 9 10 11 12 13 14 15 16 17 18 19 20 21 22 23 24 25 26 27
000
ASUS45 KBOU 260407
RWRCO

WEATHER ROUNDUP FOR COLORADO
NATIONAL WEATHER SERVICE DENVER/BOULDER CO
1000 PM MDT THU MAY 25 2017

NOTE: "FAIR" INDICATES FEW OR NO CLOUDS BELOW 12000 FEET WITH NO
SIGNIFICANT WEATHER AND/OR OBSTRUCTIONS TO VISIBILITY.

COZ001>005-013-030-031-260500-
...NORTHWEST COLORADO...

CITY           SKY/WX    TMP DP  RH WIND       PRES   REMARKS
CRAIG          CLOUDY    47  42  83 S12       29.90S
HAYDEN         MOCLDY    45  39  81 S6        29.94S
MEEKER         FAIR      50  42  74 SE9G21    29.92R
RABBIT EARS PA TSTM      32  32 100 NW5       30.08R VSB 3/4 WCI  27
STEAMBOAT SPGS CLOUDY    43  38  83 CALM      29.96R
WALDEN           N/A     41  34  75 W8        29.99R
$$

COZ006>008-011-260500-
...WEST CENTRAL VALLEYS...

CITY           SKY/WX    TMP DP  RH WIND       PRES   REMARKS
GRAND JUNCTION FAIR      65  34  31 NE10      29.77R
MONTROSE       CLOUDY    65  31  28 W14       29.88R
EAGLE          LGT RAIN  51  43  74 NW9       29.96R
RIFLE          CLOUDY    58  41  53 VRB3      29.86R
DELTA          CLOUDY    70  30  22 W12G18    29.82R
NUCLA          FAIR      59  36  41 E5        29.89S
$$

COZ017>023-064>068-260500-
...SOUTHWEST COLORADO...

CITY           SKY/WX    TMP DP  RH WIND       PRES   REMARKS
DURANGO        MOCLDY    62  26  25 VRB5      29.88R
CORTEZ         FAIR      64  33  31 SE9       29.82R
PAGOSA SPRINGS MOCLDY    62  23  22 NW12G23   29.95R
TELLURIDE      RAIN      49  34  56 W10G25    30.09R
WOLF CREEK PAS CLOUDY    37  25  60 SW23G45   30.23R
$$

COZ009-010-012-014-032>034-037-058>063-260500-
...CENTRAL COLORADO...

CITY           SKY/WX    TMP DP  RH WIND       PRES   REMARKS
ASPEN          FAIR      50  37  61 S8G18     29.96R
BUENA VISTA    FAIR      48  35  62 NW9       29.95S
COPPER MTN     FAIR      36  30  80 MISG      30.10F
BERTHOUD PASS  FAIR      30  19  64 SW17      30.11R WCI  18
COTTONWOOD PAS FAIR      45  32  61 W9        30.02S
GUNNISON       LGT RAIN  49  37  63 SW9       29.96R
KREMMLING      RAIN      46  43  87 CALM      29.97R
LEADVILLE      MOCLDY    37  33  85 S5        30.02F
MONARCH PASS   FAIR      34  28  80 W18       30.24R WCI  23
SALIDA         FAIR      58  29  33 W8        29.98R
SUNLIGHT       LGT RAIN  34  32  93 W12G28    30.11R VSB 1/4 WCI  25
WILKERSON PASS FAIR      36  30  80 W7G23     30.13R
$$

COZ069>075-260500-
...SAN LUIS VALLEY/SANGRE DE CRISTO MOUNTAINS...

CITY           SKY/WX    TMP DP  RH WIND       PRES   REMARKS
ALAMOSA        FAIR      50  30  46 SE5       29.91R
DEL NORTE      FAIR      53  24  33 CALM      29.93R
LA VETA PASS   FAIR      45  23  42 S21G32    30.18R
SAGUACHE       FAIR      48  28  46 NE10      29.94R
$$

COZ035-036-038>040-260500-
...NORTHERN COLORADO FRONT RANGE...

CITY           SKY/WX    TMP DP  RH WIND       PRES   REMARKS
DENVER INTL AP MOCLDY    47  43  86 SE7       29.83R
DMNS CITY PARK   N/A     52  45  78 E13       29.85R
AURORA         MOCLDY    47  45  91 SE3       29.85R
FRONT RANGE AP NOT AVBL
ERIE MUNI ARPT FAIR      50  48  91 S3        29.82R
BOULDER MUN AP FAIR      52  48  87 E3        29.82R
CENTENNIAL     FAIR      49  46  90 SE3       29.86R
BROOMFIELD     CLEAR     50  46  87 N3        29.85R
FORT COLLINS   CLOUDY    52  45  77 NW3       29.83R
LONGMONT       FAIR      54  48  82 W3        29.85R
$$

COZ041-046-047-076>085-087-088-260500-
...PIKES PEAK/PALMER DIVIDE AND SOUTHERN FOOTHILLS...

CITY           SKY/WX    TMP DP  RH WIND       PRES   REMARKS
COLO. SPRINGS  CLOUDY    56  43  61 N12       29.88R
A. F. ACADEMY  FAIR      53  42  65 N12       29.88R
SCHRIEVER AFB  MOCLDY    53  40  62 N20G28    29.87R
CHEYENNE MTN   MOCLDY    55  44  67 N14G22    29.86R
ELLICOTT       FAIR     N/A N/A N/A NE24G30   29.87R
FALCON         MOCLDY    49  39  68 N17       29.90R
FORT CARSON    NOT AVBL
LIMON          FAIR      50  46  86 N18G24    29.82R
MONUMENT HILL  MOCLDY    45  39  81 CALM      29.93R
CANON CITY     NOT AVBL
WALSENBURG     FAIR      59  46  63 N12       29.87R
TRINIDAD       FAIR      60  43  53 NE13      29.82R
$$

COZ042>045-048>051-090-091-260500-
...NORTHEAST COLORADO...

CITY           SKY/WX    TMP DP  RH WIND       PRES   REMARKS
GREELEY ARPT   FAIR      53  45  74 NW8       29.81
AKRON          MOCLDY    52  46  80 NE6       29.81R
BURLINGTON     FAIR      56  50  80 N8        29.74R
WRAY           FAIR      59  50  72 N21G32    29.75F
YUMA           FAIR      54  46  76 NW13      29.78S
STERLING       CLOUDY    52  52 100 W6        29.79R
HOLYOKE        NOT AVBL
FORT MORGAN    CLOUDY    52  48  88 CALM      29.81R
$$

COZ086-089-092>099-260500-
...SOUTHEAST COLORADO...

CITY           SKY/WX    TMP DP  RH WIND       PRES   REMARKS
PUEBLO         FAIR      60  45  57 N5        29.81R
LA JUNTA       FAIR      61  45  55 E7        29.75R
LAMAR          FAIR      62  45  53 E10       29.69R
SPRINGFIELD      N/A     59  48  67 NE23G32   29.70R
$$




USA.gov is the U.S. government's official web portal to all federal, state and local government web resources and services.